Location: Sternwarte_Laufen
(47.9344°N, 12.9346°E)
Time: 17:04:49
(UTC+02:00)

Tiangong 2 - Visible Passes

Search period start: 15 October 2018 00:00
Search period end: 25 October 2018 00:00
Orbit: 383 x 393 km, 42.8° (Epoch: 15 October)

Date Brightness Start Highest point End Pass type
(mag) Time Alt. Az. Time Alt. Az. Time Alt. Az.
15 Oct 2.5 05:41:09 27° S 05:41:09 27° S 05:43:41 10° SE visible
16 Oct 3.1 06:18:02 15° SW 06:19:02 17° SSW 06:21:10 10° SSE visible
17 Oct 3.6 05:22:38 15° SSE 05:22:38 15° SSE 05:23:27 10° SE visible
18 Oct 3.7 05:59:38 11° SSW 05:59:38 11° SSW 05:59:58 10° S visible
